{"data":{"norad_id":51864,"epoch":"2026-09-20T03:15:24.009984Z","epoch_age_seconds":83330,"freshness":"FRESH","line1":"1 51864U 22022N   26263.13569456  .00005407  00000+0  17118-3 0  9996","line2":"2 51864  53.1608 205.0779 0001539 121.5939 238.5214 15.34377234252662","mean_motion":15.34377234,"eccentricity":0.0001539,"inclination_deg":53.1608,"raan_deg":205.0779,"arg_perigee_deg":121.5939,"mean_anomaly_deg":238.5214,"bstar":0.00017118,"rev_number":25266,"period_min":93.849150527738,"perigee_km":461.71809066667,"apogee_km":463.82372212026,"semimajor_km":6840.9079063935,"source":"CELESTRAK","updated_at":"2026-09-20T09:00:39.946856Z"}}